[[{"header":{"parameterUnit":"m.s-1","parameterCategory":1,"la1":30.2991,"la2":30.254,"lo1":-89.0895,"lo2":-89.0444,"dy":0.0017,"dx":0.0017,"nx":28,"ny":28,"refTime":"2025-09-17T21:00:00:Z","depth":0,"parameterNumber":2,"parameterNumberName":"U-component_of_WINDS"},"data":[0,0,0,0,0,0,0,0,0,0,0,0,0,0,0,0,0,0,0,0,0,0,0,0,0,0,0,0,0,0,0,0,0,0,0,0,0,0,0,0,0,0,0,0,0,0,0,0,0,0,0,0,0,0,0,0,0,0,-1.3424,-1.3424,0,-1.3462,-1.3463,-1.3463,-1.347,-1.3469,-1.3469,-1.3469,-1.3508,-1.351,-1.3511,0,0,0,0,0,0,0,0,0,0,0,0,0,-1.3357,-1.3358,-1.3424,-1.3424,-1.3425,-1.3462,-1.3463,-1.3463,-1.347,-1.3469,-1.3469,-1.3469,-1.3508,-1.3509,-1.3511,0,0,0,0,0,0,0,0,0,0,0,0,0,-1.339,-1.3358,-1.3424,-1.3432,-1.3434,-1.3462,-1.3463,-1.3463,-1.347,-1.3469,-1.3469,-1.3468,-1.3507,-1.3509,-1.3511,-1.3534,0,0,-1.3518,-1.3518,0,0,0,0,0,0,0,0,-1.3388,-1.3392,-1.3431,-1.3432,-1.3433,-1.3461,-1.3454,-1.3487,-1.347,-1.3456,-1.3469,-1.3468,-1.3493,-1.3496,-1.3504,-1.3536,-1.3537,-1.3518,-1.3519,-1.352,-1.352,0,0,0,0,0,0,0,-1.3385,-1.339,-1.3439,-1.3431,-1.3433,-1.3435,-1.3439,-1.346,-1.3477,-1.3457,-1.3458,-1.3462,-1.3493,-1.3502,-1.3505,-1.3538,-1.3518,-1.3519,-1.3521,-1.3521,-1.3592,-1.3593,0,0,0,0,0,0,-1.3381,-1.3388,-1.3438,-1.344,-1.3409,-1.3436,-1.3441,-1.3452,-1.3477,-1.348,-1.3463,-1.3462,-1.3499,-1.3503,-1.3507,-1.3536,-1.352,-1.3522,-1.3523,-1.3591,-1.3592,-1.3593,0,0,0,0,0,0,-1.338,-1.3386,-1.3436,-1.3414,-1.3421,-1.3438,-1.3451,-1.3453,-1.3462,-1.3481,-1.3484,-1.3469,-1.3499,-1.3504,-1.3527,-1.3537,-1.3523,-1.3524,-1.359,-1.3591,-1.3592,-1.3594,0,0,0,0,0,0,-1.3378,-1.3385,-1.3393,-1.3415,-1.3422,-1.3456,-1.3451,-1.3454,-1.3466,-1.3466,-1.3487,-1.349,-1.3499,-1.3524,-1.353,-1.354,-1.3526,-1.359,-1.3591,-1.3592,-1.3593,-1.3595,-1.3596,0,0,0,0,0,-1.3376,-1.3392,-1.3394,-1.34,-1.3433,-1.3456,-1.3461,-1.347,-1.3466,-1.3475,-1.3488,-1.3489,-1.3536,-1.3527,-1.3533,-1.3544,-1.3589,-1.3591,-1.3592,-1.3592,-1.3594,-1.3596,0,0,0,0,0,0,-1.337,-1.3395,-1.3397,-1.342,-1.3436,-1.3457,-1.3468,-1.3472,-1.3489,-1.3488,-1.35,-1.3505,-1.3528,-1.3538,-1.3528,-1.3568,-1.3562,-1.3565,-1.356,-1.3562,-1.3564,-1.3561,-1.3528,0,0,0,0,0,-1.3372,-1.3389,-1.3409,-1.3428,-1.3436,-1.3451,-1.3461,-1.3468,-1.3485,-1.3491,-1.3505,-1.3522,-1.354,-1.3552,-1.357,-1.3595,-1.36,-1.3605,-1.3607,-1.3608,-1.361,-1.3626,-1.3629,-1.3598,-1.3598,-1.3597,0,0,-1.3376,-1.3391,-1.3401,-1.3427,-1.344,-1.3458,-1.3456,-1.3475,-1.3488,-1.3494,-1.3518,-1.3529,-1.3548,-1.3573,-1.3584,-1.3582,-1.3621,-1.361,-1.3611,-1.3612,-1.3628,-1.3631,-1.3634,-1.3599,-1.3598,-1.3598,0,0,-1.3391,-1.3404,-1.3422,-1.3435,-1.3455,-1.3466,-1.347,-1.3491,-1.3499,-1.3523,-1.3528,-1.3545,-1.3575,-1.359,-1.3601,-1.3624,-1.3627,-1.363,-1.3638,-1.3654,-1.3656,-1.3659,-1.3668,-1.3671,-1.3632,-1.3632,-1.3632,0,-1.3393,-1.3419,-1.343,-1.3449,-1.3461,-1.3468,-1.3487,-1.35,-1.3525,-1.3533,-1.353,-1.3571,-1.3584,-1.3613,-1.3619,-1.3628,-1.3634,-1.3627,-1.3655,-1.3657,-1.366,-1.3669,-1.3672,-1.3632,-1.3632,-1.3632,-1.3632,0,-1.3421,-1.344,-1.3452,-1.3477,-1.349,-1.3509,-1.3523,-1.3536,-1.3542,-1.3553,-1.3578,-1.3595,-1.3617,-1.3624,-1.363,-1.3655,-1.3653,-1.3653,-1.3647,-1.3663,-1.3672,-1.3675,-1.3633,-1.3633,-1.3633,-1.3633,0,0,-1.3433,-1.3465,-1.3469,-1.3481,-1.3505,-1.352,-1.354,-1.3562,-1.3573,-1.3591,-1.3608,-1.3636,-1.3636,-1.3649,-1.3656,-1.367,-1.3689,-1.3668,-1.3668,-1.3672,-1.372,-1.3721,-1.3724,-1.3692,-1.3692,-1.3693,-1.3719,0,-1.3451,-1.3487,-1.3498,-1.3528,-1.3546,-1.3554,-1.3572,-1.3589,-1.36,-1.3618,-1.363,-1.365,-1.3648,-1.3656,-1.367,-1.3684,-1.3699,-1.3682,-1.3709,-1.371,-1.3704,-1.3729,-1.3729,-1.3753,-1.3722,-1.3723,-1.3723,0,-1.3477,-1.3496,-1.3528,-1.3552,-1.356,-1.3575,-1.3598,-1.3614,-1.3634,-1.3642,-1.3657,-1.3664,-1.3687,-1.368,-1.3712,-1.37,-1.3712,-1.3721,-1.3722,-1.3725,-1.3717,-1.3733,-1.376,-1.3764,-1.3729,-1.3728,-1.3728,0,-1.3484,-1.3517,-1.3541,-1.3551,-1.3579,-1.359,-1.3602,-1.3622,-1.3635,-1.3655,-1.3664,-1.3686,-1.3698,-1.3716,-1.3729,-1.3723,-1.376,-1.3755,-1.3768,-1.3768,-1.3775,-1.3775,-1.3805,-1.3782,-1.3782,-1.3782,-1.3782,0,-1.3504,-1.3523,-1.3545,-1.3559,-1.3582,-1.3596,-1.3618,-1.363,-1.3648,-1.3666,-1.3675,-1.3692,-1.3708,-1.3727,-1.3738,-1.3764,-1.3769,-1.3776,-1.3779,-1.3776,-1.3775,-1.3784,-1.3783,-1.3783,-1.3783,-1.3783,-1.3783,0,-1.3514,-1.353,-1.3556,-1.3581,-1.3588,-1.3603,-1.3625,-1.364,-1.3653,-1.3676,-1.3682,-1.3701,-1.3725,-1.374,-1.377,-1.3777,-1.3806,-1.3808,-1.3799,-1.38,-1.3813,-1.3812,-1.3851,-1.3857,-1.3829,-1.3829,-1.383,0,-1.3526,-1.3541,-1.3568,-1.3581,-1.3594,-1.3614,-1.3628,-1.3643,-1.3657,-1.3683,-1.3695,-1.372,-1.374,-1.3777,-1.3795,-1.3818,-1.3821,-1.3833,-1.3825,-1.3822,-1.3823,-1.3822,-1.3824,-1.3835,-1.3835,-1.3835,-1.3835,0,-1.3545,-1.3553,-1.3573,-1.3596,-1.3613,-1.3632,-1.3651,-1.3661,-1.3679,-1.3696,-1.372,-1.3736,-1.3767,-1.3792,-1.3817,-1.3831,-1.3837,-1.3838,-1.3842,-1.3839,-1.3834,-1.3838,-1.3803,-1.3837,-1.3837,-1.3836,-1.3836,-1.3836,-1.3557,-1.3572,-1.3594,-1.3617,-1.3633,-1.3651,-1.3667,-1.3682,-1.3703,-1.373,-1.3738,-1.3764,-1.3786,-1.3821,-1.3835,-1.3856,-1.3855,-1.3861,-1.3863,-1.3864,-1.3865,-1.3831,-1.3861,-1.3861,-1.3861,-1.3861,-1.3861,0,-1.3578,-1.3593,-1.3614,-1.3641,-1.3659,-1.3664,-1.3686,-1.3701,-1.3723,-1.3744,-1.3764,-1.3793,-1.3818,-1.3838,-1.3863,-1.3877,-1.388,-1.3883,-1.3882,-1.3886,-1.3864,-1.3858,-1.388,-1.388,-1.388,-1.388,-1.388,-1.388,-1.3591,-1.3617,-1.3627,-1.3662,-1.3677,-1.3702,-1.3715,-1.3732,-1.3749,-1.3781,-1.3802,-1.3815,-1.3836,-1.3863,-1.3886,-1.3892,-1.3901,-1.3904,-1.391,-1.3889,-1.3887,-1.3885,-1.388,-1.3906,-1.3906,-1.393,-1.393,-1.3931]},{"header":{"parameterUnit":"m.s-1","parameterCategory":1,"la1":30.2991,"la2":30.254,"lo1":-89.0895,"lo2":-89.0444,"dy":0.0017,"dx":0.0017,"nx":28,"ny":28,"refTime":"2025-09-17T21:00:00:Z","depth":0,"parameterNumber":3,"parameterNumberName":"V-component_of_WINDS"},"data":[0,0,0,0,0,0,0,0,0,0,0,0,0,0,0,0,0,0,0,0,0,0,0,0,0,0,0,0,0,0,0,0,0,0,0,0,0,0,0,0,0,0,0,0,0,0,0,0,0,0,0,0,0,0,0,0,0,0,2.4243,2.4244,0,2.4304,2.4304,2.4305,2.4374,2.4375,2.4376,2.4377,2.4434,2.4434,2.4435,0,0,0,0,0,0,0,0,0,0,0,0,0,2.4181,2.4182,2.4243,2.4244,2.4244,2.4303,2.4304,2.4305,2.4374,2.4375,2.4376,2.4378,2.4434,2.4434,2.4435,0,0,0,0,0,0,0,0,0,0,0,0,0,2.4221,2.4182,2.4243,2.4286,2.4291,2.4303,2.4304,2.4305,2.4374,2.4375,2.4377,2.4378,2.4433,2.4434,2.4435,2.4408,0,0,2.4437,2.4438,0,0,0,0,0,0,0,0,2.4219,2.4223,2.4279,2.4283,2.4288,2.4333,2.4303,2.434,2.4373,2.4342,2.4377,2.4379,2.4399,2.4402,2.441,2.4411,2.4414,2.4438,2.4438,2.4438,2.4439,0,0,0,0,0,0,0,2.4216,2.4221,2.4267,2.428,2.4285,2.43,2.4308,2.431,2.436,2.4345,2.435,2.4356,2.4401,2.4409,2.4412,2.4414,2.4438,2.4438,2.4439,2.4439,2.4393,2.4392,0,0,0,0,0,0,2.4207,2.4218,2.4265,2.4269,2.4257,2.43,2.4309,2.4317,2.4361,2.4369,2.4355,2.4359,2.4407,2.4411,2.4414,2.4383,2.4438,2.4439,2.444,2.4395,2.4393,2.4391,0,0,0,0,0,0,2.4206,2.4211,2.4262,2.4245,2.4253,2.43,2.4308,2.4317,2.4325,2.4369,2.4377,2.4354,2.4408,2.4413,2.4409,2.4386,2.4439,2.444,2.4397,2.4394,2.4392,2.4323,0,0,0,0,0,0,2.4204,2.421,2.4202,2.4244,2.4253,2.4258,2.4307,2.4317,2.4327,2.4333,2.437,2.4378,2.441,2.4407,2.441,2.4388,2.4441,2.4399,2.4396,2.4393,2.4327,2.4318,2.431,0,0,0,0,0,2.4201,2.4179,2.4201,2.4206,2.4244,2.4256,2.4261,2.4301,2.4325,2.4316,2.4343,2.4376,2.4389,2.4406,2.441,2.4388,2.4401,2.4397,2.4393,2.4331,2.432,2.431,0,0,0,0,0,0,2.4131,2.4186,2.421,2.4202,2.4224,2.4268,2.4258,2.4288,2.4303,2.4308,2.4355,2.4362,2.4351,2.437,2.4388,2.4363,2.44,2.4396,2.4351,2.4341,2.4333,2.4327,2.4441,0,0,0,0,0,2.4115,2.4122,2.4169,2.4157,2.4167,2.421,2.4217,2.4245,2.427,2.4279,2.4306,2.4327,2.4335,2.434,2.435,2.4331,2.4338,2.4318,2.4309,2.4302,2.4298,2.4286,2.4276,2.4379,2.4379,2.4379,0,0,2.4081,2.4112,2.4113,2.4143,2.4164,2.4168,2.4218,2.422,2.4222,2.4279,2.4276,2.4297,2.4323,2.431,2.4306,2.4325,2.4271,2.4297,2.4291,2.4291,2.4281,2.4271,2.4262,2.4376,2.4376,2.4377,0,0,2.4021,2.4046,2.4038,2.4057,2.4088,2.4117,2.4115,2.4154,2.417,2.4169,2.4211,2.4214,2.4228,2.4244,2.4254,2.4198,2.4228,2.4201,2.4155,2.4143,2.4135,2.4128,2.4104,2.4096,2.4197,2.4196,2.4196,0,2.3974,2.3983,2.4029,2.4028,2.4039,2.4092,2.4081,2.4098,2.413,2.4135,2.4157,2.4174,2.4196,2.4186,2.4172,2.418,2.4176,2.4195,2.4133,2.4126,2.412,2.4098,2.409,2.4193,2.4193,2.4193,2.4194,0,2.3922,2.3928,2.3917,2.3947,2.3957,2.3952,2.3994,2.3998,2.4026,2.4051,2.4048,2.4076,2.4091,2.4092,2.4119,2.4085,2.4095,2.4125,2.4161,2.4106,2.4086,2.4078,2.4187,2.4189,2.419,2.4191,0,0,2.3818,2.3874,2.3868,2.3882,2.3919,2.3923,2.3919,2.3936,2.3937,2.3957,2.3953,2.3964,2.399,2.4001,2.4031,2.402,2.397,2.405,2.4051,2.4031,2.393,2.3905,2.3895,2.3991,2.399,2.3989,2.3927,0,2.3761,2.3759,2.3799,2.3784,2.3788,2.3838,2.3834,2.3855,2.3879,2.3884,2.3911,2.3916,2.3953,2.3959,2.3952,2.3978,2.395,2.3983,2.3984,2.3983,2.3972,2.3886,2.386,2.38,2.392,2.3919,2.3918,0,2.3695,2.3712,2.3697,2.3734,2.3737,2.3733,2.375,2.3755,2.3779,2.3798,2.381,2.3843,2.3839,2.3877,2.387,2.3892,2.3895,2.3907,2.3906,2.3904,2.3944,2.3878,2.3782,2.3771,2.3907,2.3908,2.3908,0,2.3615,2.3635,2.3628,2.3638,2.3681,2.3677,2.3694,2.3721,2.3727,2.3742,2.3746,2.376,2.3766,2.3775,2.3811,2.3836,2.3798,2.384,2.381,2.3809,2.3797,2.3796,2.3696,2.3805,2.3805,2.3806,2.3806,0,2.3545,2.3533,2.3592,2.3587,2.3575,2.3621,2.3607,2.3629,2.3652,2.365,2.3696,2.3693,2.3742,2.3744,2.3772,2.376,2.3763,2.3775,2.3782,2.3769,2.3767,2.3769,2.3772,2.3803,2.3804,2.3804,2.3805,0,2.3453,2.3492,2.3487,2.3529,2.3539,2.3527,2.3562,2.3558,2.3586,2.3583,2.3585,2.3627,2.3632,2.3669,2.3682,2.3701,2.3676,2.3693,2.3668,2.3672,2.3639,2.3639,2.3533,2.3519,2.364,2.3639,2.3638,0,2.3404,2.3396,2.3437,2.344,2.3455,2.346,2.3467,2.3512,2.3517,2.3543,2.3535,2.3544,2.3553,2.3558,2.3588,2.3597,2.3612,2.3574,2.3613,2.36,2.3606,2.3605,2.3602,2.3564,2.3563,2.3562,2.3561,0,2.3311,2.3331,2.334,2.3356,2.3363,2.3377,2.3394,2.3393,2.3443,2.3446,2.3451,2.3458,2.3472,2.3478,2.3493,2.3509,2.3541,2.3549,2.3541,2.3526,2.351,2.3514,2.3641,2.355,2.3551,2.3552,2.3552,2.3553,2.3236,2.323,2.3258,2.3266,2.3283,2.3297,2.3295,2.3322,2.3328,2.3343,2.3369,2.337,2.3393,2.3416,2.343,2.343,2.3449,2.344,2.3437,2.3432,2.3424,2.3513,2.3433,2.3433,2.3434,2.3434,2.3434,0,2.3142,2.3163,2.317,2.3192,2.3197,2.3231,2.325,2.3252,2.3253,2.3272,2.328,2.3285,2.3292,2.3323,2.3332,2.3326,2.334,2.3326,2.3325,2.3327,2.3408,2.3411,2.3314,2.3314,2.3314,2.3314,2.3314,2.3314,2.3094,2.3085,2.3107,2.3106,2.3126,2.3128,2.3136,2.3148,2.3164,2.3168,2.3174,2.3195,2.3218,2.3229,2.3236,2.3245,2.3244,2.3224,2.3236,2.3311,2.3322,2.3333,2.3336,2.3224,2.3224,2.3155,2.3155,2.3154]}]]